Location: Unspecified
(52.4292°N, 19.3359°E)
Time: 15:10:57
(UTC+02:00)

Transit 2A Rocket - Pass Details

Date: 27 May 2024
Orbit: 583 x 910 km, 66.7° (Epoch: 14 June)

Event Time Altitude Azimuth Distance (km) Brightness Sun altitude
Rises 03:33:12 0° 204° (SSW) 3,004 - -7.1°
Exits shadow 03:34:50 - 201° (SSW) 2,369 6.9 -7.0°
Reaches altitude 10° 03:35:26 10° 200° (SSW) 2,141 6.7 -6.9°
Maximum altitude 03:40:13 59° 122° (ESE) 859 5.4 -6.4°
Drops below altitude 10° 03:45:32 10° 44° (NE) 2,372 9.4 -5.9°
Sets 03:48:06 0° 41° (NE) 3,358 11.3 -5.6°
